User: anonymous   Login
Location: Unspecified
(0.0000°N, 0.0000°E)
Time: 12:18:31
(UTC+02:00)
Language:

Meteor PRIRODA - Orbit

View from above orbital plane
View from above orbital plane
View from above satellite
View from above satellite

Ground track
Ground track

The orbit data is extracted from the following two-line orbital elements,

1 12585U 81065A   17147.96281069 +.00000646 +00000-0 +32813-4 0  9999
2 12585 097.4294 127.5591 0016474 108.7795 251.5229 15.20303354953387
Epoch (UTC): 27 May 2017 23:06:26
Eccentricity: 0.0016474
inclination: 97.4294°
perigee height: 493 km
apogee height: 516 km
right ascension of ascending node: 127.5591°
argument of perigee: 108.7795°
revolutions per day: 15.20303354
mean anomaly at epoch: 251.5229°
orbit number at epoch: 95338

The dashed part of the orbit path shows where the satellite is in the earth's shadow,  

DLR